Location: Dortmund
(51.5019°N, 7.6520°E)
Time: 16:58:52
(UTC+01:00)

ISS - Pass Details

Date: 28 March 2017
Orbit: 399 x 409 km, 51.6° (Epoch: 25 March)

Event Time Altitude Azimuth Distance (km) Brightness Sun altitude
Rises 22:32:04 0° 242° (WSW) 2,311 0.3 -22.9°
Reaches altitude 10° 22:34:10 10° 238° (WSW) 1,455 -0.8 -23.2°
Enters shadow 22:34:28 12° 237° (WSW) 1,334 -1.0 -23.2°
